Weather in Charlotte

United States     35°13′50″N   80°50′49″W
temp.,
°C
wind,
m/s
gust,
m/s
humid.,
%
clouds,
%
prec.,
mm/h
press.,
hPa
HPBL,
m
7 may, fri
fri723:00+15sse11552 0.1 101414
02:00+12ese1291100 2.3 101367
05:00+12nw2394100 1.4 1011124
08:00+12nnw25885 1.4 1012238
11:00+17nw574375 0.0 10131934
14:00+19wnw692953 0.1 10122907
17:00+19nw69225 0.0 10132812
20:00+16wnw49360 0.0 1014864
8 may, sat
sat823:00+13wnw49460 0.0 1016630
02:00+11w38560 0.0 1016297
05:00+11w412617 0.0 1016508
08:00+13w410605 0.0 1018844
11:00+18wnw5114070 0.0 10182506
14:00+21w5103030 0.0 10172720
17:00+22wnw58245 0.0 10162783
20:00+18wnw2745100 0.0 1018314
9 may, sun
sun923:00+17nne123899 0.0 101998
02:00+16e124180 0.0 101982
05:00+14ese2347100 0.0 1019103
08:00+14sse2356100 0.0 1020208
11:00+21ssw510485 0.0 10181085
14:00+26sw71233100 0.0 10161990
17:00+27ssw61334100 0.0 10142152
20:00+23ssw51346100 0.0 10141263
10 may, mon
mon1023:00+21ssw51453100 0.0 1014768
02:00+19ssw61674100 0.1 1013730
05:00+18sw51692100 0.4 1013742
08:00+19sw51487100 0.4 1014619
11:00+22wsw6967100 0.0 1014795
14:00+24sw5953100 0.0 10131293
17:00+24sw575495 0.3 10121363
20:00+21sw477450 0.3 1013504
11 may, tue
tue1123:00+18wnw12926 0.6 101450
02:00+15nne41194100 3.1 1016501
05:00+13ne41185100 0.0 1017505
08:00+13nne41075100 0.1 1021651
11:00+14ne4962100 0.0 1022706
14:00+20ne353993 0.0 10211704
17:00+22ene2534100 0.0 10201992
20:00+19nne3838100 0.0 1022633